Mt. Clemens, MI

5:02 PM EDT on March 25, 2017 (GMT -0400)
Selfridge Angb

Weather History for KMTC - January, 2013

Change the Weather History Date:

Wednesday, January 9, 2013

  Actual Average Record
Temperature  
Mean Temperature 39 °F -  
Max Temperature 46 °F 27 °F 53 °F (1949)
Min Temperature 32 °F 16 °F -7 °F (2014)
Degree Days  
Heating Degree Days 26    
Moisture  
Dew Point 28 °F    
Average Humidity 62    
Maximum Humidity 87    
Minimum Humidity 40    
Precipitation  
Precipitation 0.00 in - - ()
Snow  
Snow 0.00 in - - ()
Snow Depth 3.00 in    
Sea Level Pressure  
Sea Level Pressure 30.16 in    
Wind  
Wind Speed 14 mph (WSW)    
Max Wind Speed 28 mph    
Max Gust Speed 41 mph    
Visibility 10 miles    
Events Rain    
Averages and records for this station are not official NWS values.
T = Trace of Precipitation, MM = Missing Value Source: NWS Daily Summary

Daily Weather History Graph

Daily Weather History Graph

Search for Another Location

Airport or City:

Trip Planner

Search our weather history database for the weather conditions in past years. The results will help you decide how hot, cold, wet, or windy it might be!

Date:

Astronomy

Jan. 09, 2013 Rise Set
Actual Time 8:00 AM EST 5:16 PM EST
Civil Twilight 7:29 AM EST 5:48 PM EST
Nautical Twilight 6:54 AM EST 6:23 PM EST
Astronomical Twilight 6:20 AM EST 6:57 PM EST
Moon 5:38 AM EST (1/9) 3:17 PM EST (1/9)
Length of Visible Light 10h 19m
Length of Day
9h 16m
Waning Crescent, 6% of the Moon is Illuminated
Jan 9
Waning Crescent
Jan 11
New
Jan 18
First Quarter
Jan 26
Full
Feb 3
Last Quarter

Hourly Weather History & Observations

Time (EST) Temp. Windchill Dew Point Humidity Pressure Visibility Wind Dir Wind Speed Gust Speed Precip Events Conditions
4:55 AM 32.0 °F 23.6 °F 28.4 °F 87% 30.09 in 10.0 mi South 10.4 mph - N/A   Overcast
5:55 AM 33.8 °F 26.4 °F 30.2 °F 87% 30.08 in 10.0 mi SSW 9.2 mph - N/A   Overcast
6:32 AM 35.6 °F 26.6 °F 32.0 °F 87% 30.03 in 7.0 mi SW 13.8 mph 20.7 mph N/A Rain Light Rain
6:55 AM 39.2 °F 32.0 °F 32.0 °F 75% 30.04 in 7.0 mi SSW 11.5 mph - N/A Rain Light Rain
7:27 AM 37.4 °F 31.4 °F 32.0 °F 81% 30.02 in 7.0 mi SSW 8.1 mph - N/A   Overcast
7:55 AM 37.4 °F 30.3 °F 32.0 °F 81% 30.06 in 5.0 mi SSW 10.4 mph - N/A   Overcast
8:55 AM 39.2 °F 29.8 °F 32.0 °F 75% 30.06 in 6.0 mi SW 18.4 mph 26.5 mph N/A   Haze
9:55 AM 41.0 °F 32.8 °F 32.0 °F 70% 30.08 in 10.0 mi WSW 16.1 mph 28.8 mph N/A   Partly Cloudy
10:55 AM 42.8 °F 34.5 °F 32.0 °F 66% 30.09 in 10.0 mi WSW 18.4 mph 24.2 mph N/A   Clear
11:55 AM 44.6 °F 36.9 °F 30.2 °F 57% 30.10 in 10.0 mi WSW 18.4 mph 26.5 mph N/A   Clear
12:55 PM 44.6 °F 36.9 °F 28.4 °F 53% 30.09 in 10.0 mi West 18.4 mph 28.8 mph N/A   Clear
1:55 PM 46.4 °F 39.0 °F 26.6 °F 46% 30.10 in 10.0 mi West 19.6 mph 23.0 mph N/A   Partly Cloudy
2:55 PM 46.4 °F 39.0 °F 24.8 °F 43% 30.12 in 12.0 mi West 19.6 mph 28.8 mph N/A   Partly Cloudy
3:20 PM 46.4 °F 37.5 °F 23.0 °F 40% 30.10 in 12.0 mi West 27.6 mph 41.4 mph N/A   Partly Cloudy
3:55 PM 46.4 °F 39.8 °F 23.0 °F 40% 30.16 in 12.0 mi West 16.1 mph 33.4 mph N/A   Partly Cloudy
4:55 PM 44.6 °F 36.4 °F 23.0 °F 43% 30.18 in 12.0 mi West 20.7 mph 33.4 mph N/A   Partly Cloudy
5:55 PM 42.8 °F 35.8 °F 23.0 °F 46% 30.22 in 12.0 mi West 13.8 mph - N/A   Partly Cloudy
6:55 PM 41.0 °F 33.5 °F 23.0 °F 49% 30.27 in 12.0 mi WNW 13.8 mph 25.3 mph N/A   Clear
7:55 PM 41.0 °F 32.8 °F 24.8 °F 53% 30.34 in 12.0 mi West 16.1 mph 23.0 mph N/A   Partly Cloudy
8:55 PM 39.2 °F 31.6 °F 24.8 °F 56% 30.38 in 12.0 mi WNW 12.7 mph 23.0 mph N/A   Partly Cloudy
9:55 PM 37.4 °F 30.8 °F 24.8 °F 60% 30.40 in 12.0 mi NW 9.2 mph - N/A   Partly Cloudy
10:55 PM 35.6 °F 30.7 °F 24.8 °F 65% 30.43 in 12.0 mi NW 5.8 mph - N/A   Clear